Location: Newark
(5.8900°S, 42.6378°W)
Time: 15:55:16
(UTC+00:00)

ITUPSAT 1 - Visible Passes

Search period start: 15 October 2019 00:00
Search period end: 25 October 2019 00:00
Orbit: 701 x 713 km, 98.6° (Epoch: 15 October)

Date Brightness Start Highest point End Pass type
(mag) Time Alt. Az. Time Alt. Az. Time Alt. Az.
15 Oct ? 07:17:56 10° SE 07:22:05 29° ENE 07:26:12 10° NNE visible
16 Oct ? 08:01:29 10° S 08:06:18 74° WSW 08:11:05 10° NNW visible
17 Oct ? 07:09:13 10° SE 07:12:54 22° ENE 07:16:34 10° NNE visible
18 Oct ? 07:52:17 10° SSE 07:57:07 83° ENE 08:01:55 10° N visible
19 Oct ? 07:00:42 10° ESE 07:03:43 17° E 07:06:42 10° NE visible
20 Oct ? 07:43:10 10° SSE 07:47:56 62° ENE 07:52:39 10° N visible
21 Oct ? 06:52:36 10° ESE 06:54:31 12° E 06:56:25 10° NE visible
22 Oct ? 07:34:08 10° SSE 07:38:45 46° ENE 07:43:19 10° N visible
24 Oct ? 07:25:12 10° SE 07:29:34 34° ENE 07:33:53 10° NNE visible
